Weather in Duboviazivka

Ukraine / Sumi District     51°08′03″N   33°22′33″E
temp.,
°C
wind,
m/s
gust,
m/s
humid.,
%
clouds,
%
prec.,
mm/h
press.,
hPa
HPBL,
m
16 may, sun
sun1600:00+14s3387100 0.0 101150
03:00+12ssw35935 0.0 101281
06:00+12sw22910 0.0 101332
09:00+17sw22740 0.0 1013418
12:00+20sw2358100 0.0 10131178
15:00+21s235380 0.0 10121497
18:00+21s1265100 0.0 1011430
21:00+16ne2273100 0.0 101111
17 may, mon
mon1700:00+14ne468365 0.0 101090
03:00+13ne41089100 0.3 1008173
06:00+14ne51192100 2.5 1006278
09:00+18e61079100 2.5 1004446
12:00+22ese796058 0.0 1004935
15:00+23se6106396 0.0 10031295
18:00+21se4980100 0.2 1002272
21:00+19sse5139191 0.7 1002454
18 may, tue
tue1800:00+17sse61491100 0.4 1002469
03:00+15s359899 0.4 1004207
06:00+14s3697100 0.0 1005252
09:00+17sse4579100 0.0 1005537
12:00+20sse5672100 0.4 10051161
15:00+20sse4675100 1.6 10041013
18:00+19se5877100 1.1 1003809
21:00+15sse4889100 1.7 1003155
19 may, wed
wed1900:00+14se499699 0.7 1003377
03:00+12ese489778 0.7 1003278
06:00+12se5993100 0.0 1003516
09:00+13sse6989100 0.2 1004775
12:00+15se577298 0.1 10041199
15:00+12se3793100 1.6 1004370
18:00+14sse458254 0.1 1003633
21:00+12s349136 0.1 100485
20 may, thu
thu2000:00+11s3693100 0.0 1004149
03:00+11w71092100 0.1 1006646
06:00+10wsw5993100 0.1 1008738
09:00+12wsw7108388 0.1 1010832
12:00+16wsw7968100 0.1 10121389
15:00+18wsw5760100 0.1 10121565
18:00+18ssw2470100 0.0 1012948
21:00+13s2796100 1.8 1014270